Time,TemperatureF,DewpointF,PressureIn,WindDirection,WindDirectionDegrees,WindSpeedMPH,WindSpeedGustMPH,Humidity,HourlyPrecipIn,Conditions,Clouds,dailyrainin,SoftwareType,DateUTC
2013-04-02 00:01:00,50.0,47.0,30.16,North,-999,0.0,0.0,89,0.00,,,0.00,,2013-04-02 07:01:00,
2013-04-02 00:11:00,50.0,47.0,30.16,North,-999,0.0,0.0,89,0.00,,,0.00,,2013-04-02 07:11:00,
2013-04-02 00:21:00,49.0,46.0,30.16,North,-999,0.0,0.0,89,0.00,,,0.00,,2013-04-02 07:21:00,
2013-04-02 00:31:00,49.0,46.0,30.17,SE,135,0.0,2.0,89,0.00,,,0.00,,2013-04-02 07:31:00,
2013-04-02 00:41:00,49.0,46.0,30.17,SE,135,0.0,2.0,89,0.00,,,0.00,,2013-04-02 07:41:00,
2013-04-02 00:52:00,49.0,46.0,30.17,North,-999,0.0,0.0,90,0.00,,,0.00,,2013-04-02 07:52:00,
2013-04-02 01:02:00,48.0,45.0,30.17,WSW,247,0.0,1.0,91,0.00,,,0.00,,2013-04-02 08:02:00,
2013-04-02 01:11:00,48.0,45.0,30.17,WSW,247,0.0,1.0,91,0.00,,,0.00,,2013-04-02 08:11:00,
2013-04-02 01:22:00,49.0,46.0,30.18,WSW,247,0.0,3.0,91,0.00,,,0.00,,2013-04-02 08:22:00,
2013-04-02 01:31:00,49.0,46.0,30.18,North,-999,0.0,0.0,90,0.00,,,0.00,,2013-04-02 08:31:00,
2013-04-02 01:42:00,49.0,46.0,30.18,North,-999,0.0,0.0,90,0.00,,,0.00,,2013-04-02 08:42:00,
2013-04-02 01:52:00,49.0,46.0,30.19,ENE,67,0.0,2.0,90,0.00,,,0.00,,2013-04-02 08:52:00,
2013-04-02 02:01:00,49.0,46.0,30.19,SW,225,0.0,2.0,90,0.00,,,0.00,,2013-04-02 09:01:00,
2013-04-02 02:11:00,49.0,46.0,30.19,SW,225,0.0,2.0,90,0.00,,,0.00,,2013-04-02 09:11:00,
2013-04-02 02:22:00,49.0,46.0,30.19,North,-999,0.0,0.0,90,0.00,,,0.00,,2013-04-02 09:22:00,
2013-04-02 02:32:00,49.0,46.0,30.19,WSW,247,0.0,2.0,91,0.00,,,0.00,,2013-04-02 09:32:00,
2013-04-02 02:42:00,49.0,46.0,30.19,WSW,247,0.0,2.0,91,0.00,,,0.00,,2013-04-02 09:42:00,
2013-04-02 02:52:00,49.0,46.0,30.19,WSW,247,0.0,2.0,91,0.00,,,0.00,,2013-04-02 09:52:00,
2013-04-02 03:03:00,49.0,46.0,30.19,North,-999,0.0,0.0,91,0.00,,,0.00,,2013-04-02 10:03:00,
2013-04-02 03:12:00,49.0,46.0,30.19,North,-999,0.0,0.0,91,0.00,,,0.00,,2013-04-02 10:12:00,
2013-04-02 03:23:00,49.0,47.0,30.19,North,-999,0.0,0.0,92,0.00,,,0.00,,2013-04-02 10:23:00,
2013-04-02 03:33:00,49.0,47.0,30.20,North,-999,0.0,0.0,92,0.00,,,0.00,,2013-04-02 10:33:00,
2013-04-02 03:41:00,49.0,47.0,30.20,North,-999,0.0,0.0,92,0.00,,,0.00,,2013-04-02 10:41:00,
2013-04-02 03:52:00,48.0,46.0,30.19,North,-999,0.0,0.0,92,0.00,,,0.00,,2013-04-02 10:52:00,
2013-04-02 04:02:00,48.0,46.0,30.19,SW,225,0.0,1.0,93,0.00,,,0.00,,2013-04-02 11:02:00,
2013-04-02 04:11:00,48.0,46.0,30.19,SW,225,0.0,1.0,93,0.00,,,0.00,,2013-04-02 11:11:00,
2013-04-02 04:22:00,48.0,46.0,30.19,North,-999,0.0,0.0,93,0.00,,,0.00,,2013-04-02 11:22:00,
2013-04-02 04:32:00,48.0,46.0,30.19,North,-999,0.0,0.0,94,0.00,,,0.00,,2013-04-02 11:32:00,
2013-04-02 04:42:00,48.0,46.0,30.19,North,-999,0.0,0.0,94,0.00,,,0.00,,2013-04-02 11:42:00,
2013-04-02 04:52:00,48.0,47.0,30.19,NE,45,0.0,2.0,95,0.00,,,0.00,,2013-04-02 11:52:00,
2013-04-02 05:02:00,48.0,47.0,30.20,North,-999,0.0,0.0,95,0.00,,,0.00,,2013-04-02 12:02:00,
2013-04-02 05:11:00,48.0,47.0,30.20,North,-999,0.0,0.0,95,0.00,,,0.00,,2013-04-02 12:11:00,
2013-04-02 05:22:00,47.0,46.0,30.20,North,-999,0.0,0.0,96,0.00,,,0.00,,2013-04-02 12:22:00,
2013-04-02 05:32:00,47.0,46.0,30.20,North,-999,0.0,0.0,96,0.00,,,0.00,,2013-04-02 12:32:00,
2013-04-02 05:41:00,47.0,46.0,30.20,North,-999,0.0,0.0,96,0.00,,,0.00,,2013-04-02 12:41:00,
2013-04-02 05:52:00,47.0,46.0,30.20,North,-999,0.0,0.0,96,0.00,,,0.00,,2013-04-02 12:52:00,
2013-04-02 06:01:00,47.0,46.0,30.19,North,-999,0.0,0.0,97,0.00,,,0.00,,2013-04-02 13:01:00,
2013-04-02 06:11:00,47.0,46.0,30.20,North,-999,0.0,0.0,97,0.00,,,0.00,,2013-04-02 13:11:00,
2013-04-02 06:21:00,47.0,46.0,30.20,North,-999,0.0,0.0,97,0.00,,,0.00,,2013-04-02 13:21:00,
2013-04-02 06:32:00,47.0,46.0,30.19,North,-999,0.0,0.0,97,0.00,,,0.00,,2013-04-02 13:32:00,
2013-04-02 06:42:00,47.0,46.0,30.19,North,-999,0.0,0.0,97,0.00,,,0.00,,2013-04-02 13:42:00,
2013-04-02 06:52:00,47.0,46.0,30.20,North,-999,0.0,0.0,97,0.01,,,0.01,,2013-04-02 13:52:00,
2013-04-02 07:02:00,47.0,46.0,30.20,North,-999,0.0,0.0,98,0.01,,,0.01,,2013-04-02 14:02:00,
2013-04-02 07:11:00,47.0,46.0,30.20,North,-999,0.0,0.0,98,0.01,,,0.01,,2013-04-02 14:11:00,
2013-04-02 07:22:00,47.0,46.0,30.20,North,-999,0.0,0.0,98,0.01,,,0.01,,2013-04-02 14:22:00,
2013-04-02 07:32:00,47.0,46.0,30.20,North,-999,0.0,0.0,98,0.01,,,0.01,,2013-04-02 14:32:00,
2013-04-02 07:42:00,47.0,46.0,30.20,North,-999,0.0,0.0,98,0.01,,,0.01,,2013-04-02 14:42:00,
2013-04-02 07:52:00,47.0,46.0,30.20,North,-999,0.0,0.0,98,0.01,,,0.01,,2013-04-02 14:52:00,
2013-04-02 08:02:00,47.0,46.0,30.20,North,-999,0.0,0.0,98,0.01,,,0.02,,2013-04-02 15:02:00,
2013-04-02 08:11:00,47.0,46.0,30.20,North,-999,0.0,0.0,98,0.01,,,0.02,,2013-04-02 15:11:00,
2013-04-02 08:22:00,47.0,46.0,30.20,North,-999,0.0,0.0,98,0.01,,,0.02,,2013-04-02 15:22:00,
2013-04-02 08:33:00,47.0,46.0,30.20,North,-999,0.0,0.0,98,0.02,,,0.03,,2013-04-02 15:33:00,
2013-04-02 08:42:00,47.0,46.0,30.20,North,-999,0.0,0.0,98,0.02,,,0.03,,2013-04-02 15:42:00,
2013-04-02 08:53:00,47.0,46.0,30.20,SSW,202,1.0,4.0,97,0.01,,,0.03,,2013-04-02 15:53:00,
2013-04-02 09:03:00,47.0,46.0,30.21,NNE,22,0.0,1.0,97,0.01,,,0.03,,2013-04-02 16:03:00,
2013-04-02 09:12:00,47.0,46.0,30.21,NNE,22,0.0,1.0,97,0.01,,,0.03,,2013-04-02 16:12:00,
2013-04-02 09:33:00,47.0,46.0,30.21,NE,45,0.0,2.0,97,0.01,,,0.03,,2013-04-02 16:33:00,
2013-04-02 09:42:00,47.0,46.0,30.21,NE,45,0.0,2.0,97,0.01,,,0.03,,2013-04-02 16:42:00,
2013-04-02 09:53:00,47.0,46.0,30.21,NE,45,0.0,1.0,97,0.00,,,0.03,,2013-04-02 16:53:00,
2013-04-02 10:02:00,48.0,47.0,30.20,North,-999,0.0,0.0,97,0.00,,,0.03,,2013-04-02 17:02:00,
2013-04-02 10:11:00,48.0,47.0,30.20,North,-999,0.0,0.0,97,0.00,,,0.03,,2013-04-02 17:11:00,
2013-04-02 10:22:00,48.0,47.0,30.21,NNE,22,0.0,2.0,97,0.00,,,0.03,,2013-04-02 17:22:00,
2013-04-02 10:32:00,48.0,47.0,30.21,ESE,112,0.0,2.0,97,0.00,,,0.03,,2013-04-02 17:32:00,
2013-04-02 10:42:00,48.0,47.0,30.21,ESE,112,0.0,2.0,97,0.00,,,0.03,,2013-04-02 17:42:00,
2013-04-02 10:54:00,48.0,47.0,30.21,NE,45,0.0,2.0,96,0.00,,,0.03,,2013-04-02 17:54:00,
2013-04-02 11:01:00,48.0,47.0,30.21,NE,45,1.0,4.0,97,0.00,,,0.03,,2013-04-02 18:01:00,
2013-04-02 11:12:00,48.0,47.0,30.21,NE,45,1.0,4.0,97,0.00,,,0.03,,2013-04-02 18:12:00,
2013-04-02 11:22:00,49.0,48.0,30.22,NE,45,0.0,3.0,96,0.00,,,0.03,,2013-04-02 18:22:00,
2013-04-02 11:32:00,49.0,48.0,30.22,NE,45,0.0,1.0,96,0.00,,,0.03,,2013-04-02 18:32:00,
2013-04-02 11:42:00,49.0,48.0,30.22,NE,45,0.0,1.0,96,0.00,,,0.03,,2013-04-02 18:42:00,
2013-04-02 11:54:00,49.0,48.0,30.21,NE,45,0.0,1.0,96,0.00,,,0.03,,2013-04-02 18:54:00,
2013-04-02 12:02:00,49.0,48.0,30.21,ESE,112,0.0,1.0,95,0.00,,,0.03,,2013-04-02 19:02:00,
2013-04-02 12:12:00,49.0,48.0,30.21,ESE,112,0.0,1.0,95,0.00,,,0.03,,2013-04-02 19:12:00,
2013-04-02 12:22:00,49.0,47.0,30.21,ENE,67,1.0,4.0,94,0.00,,,0.03,,2013-04-02 19:22:00,
2013-04-02 12:31:00,50.0,48.0,30.21,NE,45,0.0,1.0,94,0.00,,,0.03,,2013-04-02 19:31:00,
2013-04-02 12:42:00,50.0,48.0,30.21,NE,45,0.0,1.0,94,0.00,,,0.03,,2013-04-02 19:42:00,
2013-04-02 12:52:00,50.0,48.0,30.21,ENE,67,0.0,3.0,92,0.00,,,0.03,,2013-04-02 19:52:00,
2013-04-02 13:02:00,50.0,48.0,30.21,ESE,112,0.0,2.0,92,0.00,,,0.03,,2013-04-02 20:02:00,
2013-04-02 13:11:00,50.0,48.0,30.21,ESE,112,0.0,2.0,92,0.00,,,0.03,,2013-04-02 20:11:00,
2013-04-02 13:21:00,50.0,48.0,30.21,ENE,67,0.0,1.0,93,0.00,,,0.03,,2013-04-02 20:21:00,
2013-04-02 13:32:00,51.0,49.0,30.21,NE,45,0.0,1.0,92,0.00,,,0.03,,2013-04-02 20:32:00,
2013-04-02 13:42:00,51.0,49.0,30.21,NE,45,0.0,1.0,92,0.00,,,0.03,,2013-04-02 20:42:00,
2013-04-02 13:52:00,51.0,49.0,30.21,NE,45,0.0,1.0,92,0.00,,,0.03,,2013-04-02 20:52:00,
2013-04-02 14:02:00,51.0,48.0,30.21,ENE,67,0.0,3.0,91,0.00,,,0.03,,2013-04-02 21:02:00,
2013-04-02 14:11:00,51.0,48.0,30.21,ENE,67,0.0,3.0,91,0.00,,,0.03,,2013-04-02 21:11:00,
2013-04-02 14:22:00,50.0,47.0,30.21,ENE,67,1.0,3.0,91,0.00,,,0.03,,2013-04-02 21:22:00,
2013-04-02 14:32:00,51.0,49.0,30.21,NE,45,0.0,3.0,92,0.00,,,0.03,,2013-04-02 21:32:00,
2013-04-02 14:42:00,51.0,49.0,30.21,NE,45,0.0,3.0,92,0.00,,,0.03,,2013-04-02 21:42:00,
2013-04-02 14:53:00,51.0,49.0,30.21,NE,45,0.0,1.0,92,0.00,,,0.03,,2013-04-02 21:53:00,
2013-04-02 15:12:00,51.0,48.0,30.21,ENE,67,0.0,4.0,91,0.00,,,0.03,,2013-04-02 22:12:00,
2013-04-02 15:22:00,51.0,48.0,30.21,South,180,0.0,1.0,90,0.00,,,0.03,,2013-04-02 22:22:00,
2013-04-02 15:33:00,52.0,49.0,30.21,North,-999,0.0,0.0,90,0.00,,,0.03,,2013-04-02 22:33:00,
2013-04-02 15:42:00,52.0,49.0,30.21,North,-999,0.0,0.0,90,0.00,,,0.03,,2013-04-02 22:42:00,
2013-04-02 15:53:00,51.0,48.0,30.21,WNW,292,0.0,2.0,91,0.00,,,0.03,,2013-04-02 22:53:00,
2013-04-02 16:02:00,51.0,48.0,30.21,North,-999,0.0,0.0,91,0.00,,,0.03,,2013-04-02 23:02:00,
2013-04-02 16:12:00,51.0,49.0,30.21,North,-999,0.0,0.0,92,0.00,,,0.03,,2013-04-02 23:12:00,
2013-04-02 16:22:00,51.0,49.0,30.21,North,-999,0.0,0.0,92,0.00,,,0.03,,2013-04-02 23:22:00,
2013-04-02 16:32:00,51.0,49.0,30.21,North,-999,0.0,0.0,92,0.00,,,0.03,,2013-04-02 23:32:00,
2013-04-02 16:42:00,51.0,49.0,30.21,North,-999,0.0,0.0,92,0.00,,,0.03,,2013-04-02 23:42:00,
2013-04-02 16:53:00,52.0,49.0,30.20,NNW,337,0.0,1.0,90,0.00,,,0.03,,2013-04-02 23:53:00,
2013-04-02 17:01:00,52.0,49.0,30.20,ENE,67,1.0,4.0,89,0.00,,,0.03,,2013-04-03 00:01:00,
2013-04-02 17:12:00,52.0,49.0,30.20,ENE,67,1.0,4.0,89,0.00,,,0.03,,2013-04-03 00:12:00,
2013-04-02 17:22:00,52.0,49.0,30.19,NE,45,0.0,2.0,89,0.00,,,0.03,,2013-04-03 00:22:00,
2013-04-02 17:32:00,52.0,49.0,30.19,NNE,22,1.0,3.0,88,0.00,,,0.03,,2013-04-03 00:32:00,
2013-04-02 17:43:00,52.0,49.0,30.19,NNE,22,1.0,3.0,88,0.00,,,0.03,,2013-04-03 00:43:00,
2013-04-02 17:54:00,52.0,49.0,30.19,SSW,202,0.0,2.0,88,0.00,,,0.03,,2013-04-03 00:54:00,
2013-04-02 18:02:00,52.0,49.0,30.19,NW,315,0.0,1.0,88,0.00,,,0.03,,2013-04-03 01:02:00,
2013-04-02 18:11:00,52.0,49.0,30.19,NW,315,0.0,1.0,88,0.00,,,0.03,,2013-04-03 01:11:00,
2013-04-02 18:21:00,52.0,49.0,30.18,ENE,67,0.0,2.0,88,0.00,,,0.03,,2013-04-03 01:21:00,
2013-04-02 18:32:00,52.0,49.0,30.18,NNE,22,0.0,1.0,88,0.00,,,0.03,,2013-04-03 01:32:00,
2013-04-02 18:42:00,52.0,49.0,30.18,NNE,22,0.0,1.0,88,0.00,,,0.03,,2013-04-03 01:42:00,
2013-04-02 18:53:00,52.0,49.0,30.18,North,-999,0.0,0.0,90,0.00,,,0.03,,2013-04-03 01:53:00,
2013-04-02 19:02:00,51.0,48.0,30.18,North,-999,0.0,0.0,91,0.00,,,0.03,,2013-04-03 02:02:00,
2013-04-02 19:11:00,51.0,48.0,30.18,North,-999,0.0,0.0,91,0.00,,,0.03,,2013-04-03 02:11:00,
2013-04-02 19:22:00,51.0,48.0,30.17,North,-999,0.0,0.0,91,0.00,,,0.03,,2013-04-03 02:22:00,
2013-04-02 19:32:00,51.0,48.0,30.17,North,-999,0.0,0.0,91,0.00,,,0.03,,2013-04-03 02:32:00,
2013-04-02 19:42:00,51.0,48.0,30.17,North,-999,0.0,0.0,91,0.00,,,0.03,,2013-04-03 02:42:00,
2013-04-02 19:53:00,50.0,48.0,30.17,North,-999,0.0,0.0,92,0.00,,,0.03,,2013-04-03 02:53:00,
2013-04-02 20:02:00,50.0,48.0,30.17,North,-999,0.0,0.0,93,0.00,,,0.03,,2013-04-03 03:02:00,
2013-04-02 20:12:00,50.0,48.0,30.17,North,-999,0.0,0.0,93,0.00,,,0.03,,2013-04-03 03:12:00,
2013-04-02 20:22:00,50.0,48.0,30.17,SW,225,0.0,1.0,93,0.00,,,0.03,,2013-04-03 03:22:00,
2013-04-02 20:33:00,50.0,48.0,30.17,North,-999,0.0,0.0,93,0.00,,,0.03,,2013-04-03 03:33:00,
2013-04-02 20:43:00,50.0,48.0,30.17,North,-999,0.0,0.0,93,0.00,,,0.03,,2013-04-03 03:43:00,
2013-04-02 20:53:00,50.0,48.0,30.18,North,-999,0.0,0.0,94,0.00,,,0.03,,2013-04-03 03:53:00,
2013-04-02 21:02:00,49.0,48.0,30.18,SE,135,0.0,1.0,95,0.00,,,0.03,,2013-04-03 04:02:00,
2013-04-02 21:12:00,49.0,48.0,30.18,SE,135,0.0,1.0,95,0.00,,,0.03,,2013-04-03 04:12:00,
2013-04-02 21:23:00,49.0,48.0,30.18,North,-999,0.0,0.0,95,0.00,,,0.03,,2013-04-03 04:23:00,
2013-04-02 21:32:00,49.0,48.0,30.19,North,-999,0.0,0.0,95,0.00,,,0.03,,2013-04-03 04:32:00,
2013-04-02 21:42:00,49.0,48.0,30.19,North,-999,0.0,0.0,95,0.00,,,0.03,,2013-04-03 04:42:00,
2013-04-02 21:53:00,49.0,47.0,30.19,North,-999,0.0,0.0,93,0.00,,,0.03,,2013-04-03 04:53:00,
2013-04-02 22:02:00,49.0,47.0,30.19,North,-999,0.0,0.0,93,0.00,,,0.03,,2013-04-03 05:02:00,
2013-04-02 22:12:00,49.0,47.0,30.19,North,-999,0.0,0.0,93,0.00,,,0.03,,2013-04-03 05:12:00,
2013-04-02 22:22:00,49.0,47.0,30.19,North,-999,0.0,0.0,93,0.00,,,0.03,,2013-04-03 05:22:00,
2013-04-02 22:31:00,49.0,47.0,30.19,North,-999,0.0,0.0,94,0.00,,,0.03,,2013-04-03 05:31:00,
2013-04-02 22:41:00,49.0,47.0,30.19,North,-999,0.0,0.0,94,0.00,,,0.03,,2013-04-03 05:41:00,
2013-04-02 22:52:00,49.0,47.0,30.19,North,-999,0.0,0.0,94,0.00,,,0.03,,2013-04-03 05:52:00,
2013-04-02 23:01:00,49.0,47.0,30.19,SSW,202,0.0,1.0,94,0.00,,,0.03,,2013-04-03 06:01:00,
2013-04-02 23:12:00,49.0,47.0,30.19,SSW,202,0.0,1.0,94,0.00,,,0.03,,2013-04-03 06:12:00,
2013-04-02 23:21:00,49.0,47.0,30.20,North,-999,0.0,0.0,94,0.00,,,0.03,,2013-04-03 06:21:00,
2013-04-02 23:31:00,49.0,47.0,30.19,SSW,202,0.0,1.0,93,0.00,,,0.03,,2013-04-03 06:31:00,
2013-04-02 23:42:00,49.0,47.0,30.19,SSW,202,0.0,1.0,93,0.00,,,0.03,,2013-04-03 06:42:00,
2013-04-02 23:52:00,49.0,47.0,30.19,North,-999,0.0,0.0,93,0.00,,,0.03,,2013-04-03 06:52:00,